Location: Chippewa Lake
(41.0698°N, 81.9010°W)
Time: 05:27:23
(UTC+00:00)

SL-8 Rocket - Pass Details

Date: 28 September 2021
Orbit: 958 x 990 km, 82.9° (Epoch: 17 October)

Event Time Altitude Azimuth Distance (km) Brightness Sun altitude
Rises 03:02:25 0° 246° (WSW) 3,682 7.3 -40.4°
Reaches altitude 10° 03:07:05 10° 278° (W) 2,746 6.8 -41.1°
Maximum altitude 03:09:09 12° 297° (WNW) 2,632 6.8 -41.4°
Drops below altitude 10° 03:11:14 10° 317° (NW) 2,755 7.0 -41.6°
Sets 03:15:58 0° 348° (NNW) 3,712 7.7 -42.3°
